Regional Weather Roundup
Issued by NWS Charleston, WV

Home | Current Version | Previous Version | Graphics & Text | Print | Product List | Glossary On
Versions: 1 2 3 4 5 6 7 8 9 10 11 12 13 14 15 16 17 18 19 20 21 22 23 24 25 26 27 28 29 30 31 32 33 34 35 36 37 38 39 40 41 42 43 44 45 46 47 48 49 50
000
ASUS41 KRLX 241510
RWRRLX
West Virginia Regional Weather Roundup
National Weather Service Charleston WV
1100 AM EDT TUE APR 24 2018

Note: "fair" indicates few or no clouds below 12,000 feet with no
significant weather and/or obstructions to visibility.

WVZ003-241600-
Northern Panhandle of West Virginia

CITY           SKY/WX    TMP DP  RH WIND       PRES   REMARKS
WHEELING       RAIN      49  46  90 E12       30.10F FOG
$$

WVZ009-241600-
Northwest West Virginia

CITY           SKY/WX    TMP DP  RH WIND       PRES   REMARKS
PARKERSBURG    RAIN      51  49  92 E8        30.04F FOG
$$

WVZ006-241600-
Western West Virginia

CITY           SKY/WX    TMP DP  RH WIND       PRES   REMARKS
HUNTINGTON     LGT RAIN  54  51  90 NE7       29.95S FOG
$$

WVZ015-241600-
West Central West Virginia

CITY           SKY/WX    TMP DP  RH WIND       PRES   REMARKS
CHARLESTON     CLOUDY    55  53  93 NE5       29.95F
$$

WVZ022-031-241600-
North Central West Virginia

CITY           SKY/WX    TMP DP  RH WIND       PRES   REMARKS
CLARKSBURG     LGT RAIN  55  49  80 E10       30.07F
MORGANTOWN     LGT RAIN  52  47  83 E9G20     30.08F
$$

WVZ025-035-042-045-241600-
Southern West Virginia

CITY           SKY/WX    TMP DP  RH WIND       PRES   REMARKS
BECKLEY        LGT RAIN  50  48  93 SE21G36   29.98S FOG
LOGAN          CLOUDY    57  50  77 VRB7G26   29.93S HAZE
BLUEFIELD      LGT RAIN  48  46  93 E9        30.00F
LEWISBURG      LGT RAIN  49  47  92 NE7       30.06F
$$

WVZ047-241600-
Northern Mountains of West Virginia

CITY           SKY/WX    TMP DP  RH WIND       PRES   REMARKS
ELKINS         CLOUDY    54  44  69 SE14G24   30.08F
$$

WVZ052-241600-
Eastern Panhandle of West Virginia

CITY           SKY/WX    TMP DP  RH WIND       PRES   REMARKS
MARTINSBURG    CLOUDY    56  44  64 VRB6      30.23F
PETERSBURG     LGT RAIN  48  46  95 NW5       30.18F
$$



USA.gov is the U.S. government's official web portal to all federal, state and local government web resources and services.